Location: Marcé
(47.5801°N, 0.3280°W)
Time: 14:25:38
(UTC+01:00)

Tiros 1 despin weight - All Passes

Search period start: 09 December 2021 00:00
Search period end: 19 December 2021 00:00
Orbit: 593 x 641 km, 48.2° (Epoch: 08 December)

Date Brightness Start Highest point End Pass type
(mag) Time Alt. Az. Time Alt. Az. Time Alt. Az.
09 Dec - 11:01:01 10° S 11:03:35 15° SE 11:06:09 10° ESE daylight
09 Dec - 12:40:05 10° SW 12:44:25 52° SSE 12:48:43 10° E daylight
09 Dec - 14:21:24 10° W 14:25:52 84° N 14:30:17 10° E daylight
09 Dec - 16:03:01 10° W 16:07:27 80° SSW 16:11:52 10° ESE daylight
09 Dec - 17:44:46 10° W 17:48:37 30° SSW 17:52:29 10° SSE visible
10 Dec - 11:15:42 10° SSW 11:19:24 25° SE 11:23:04 10° E daylight
10 Dec - 12:56:02 10° WSW 13:00:30 73° SSE 13:04:54 10° ENE daylight
10 Dec - 14:37:36 10° W 14:42:04 82° N 14:46:29 10° E daylight
10 Dec - 16:19:12 10° W 16:23:33 60° SSW 16:27:53 10° ESE daylight
10 Dec - 18:01:26 10° W 18:04:28 18° SW 18:07:30 10° S visible
11 Dec - 09:53:51 10° SE 09:54:39 10° SE 09:55:27 10° ESE daylight
11 Dec - 11:31:06 10° SW 11:35:18 40° SSE 11:39:28 10° E daylight
11 Dec - 13:12:10 10° W 13:16:38 90° NNW 13:21:04 10° E daylight
11 Dec - 14:53:48 10° W 14:58:15 90° NNE 15:02:40 10° E daylight
11 Dec - 16:35:26 10° W 16:39:34 40° SSW 16:43:40 10° SE daylight
12 Dec - 10:07:13 10° S 10:10:22 19° SE 10:13:31 10° E daylight
12 Dec - 11:46:54 10° WSW 11:51:19 60° SSE 11:55:41 10° E daylight
12 Dec - 13:28:21 10° W 13:32:49 82° N 13:37:15 10° E daylight
12 Dec - 15:09:57 10° WNW 15:14:23 73° SSW 15:18:47 10° ESE daylight
12 Dec - 16:51:51 10° W 16:55:28 25° SW 16:59:04 10° SSE daylight
13 Dec - 10:22:15 10° SSW 10:26:13 31° SSE 10:30:09 10° E daylight
13 Dec - 12:02:56 10° WSW 12:07:25 81° SSE 12:11:52 10° E daylight
13 Dec - 13:44:32 10° W 13:49:02 84° N 13:53:27 10° E daylight
13 Dec - 15:26:09 10° W 15:30:27 51° SSW 15:34:43 10° SE daylight
13 Dec - 17:08:48 10° WSW 17:11:15 15° SW 17:13:42 10° S daylight
14 Dec - 08:59:09 10° SSE 09:01:24 14° SE 09:03:38 10° ESE daylight
14 Dec - 10:37:50 10° SW 10:42:11 48° SSE 10:46:28 10° E daylight
14 Dec - 12:19:05 10° W 12:23:35 85° N 12:28:02 10° E daylight
14 Dec - 14:00:44 10° W 14:05:11 84° SSW 14:09:37 10° ESE daylight
14 Dec - 15:42:26 10° W 15:46:25 33° SSW 15:50:22 10° SSE daylight
15 Dec - 09:13:34 10° SSW 09:17:10 23° SE 09:20:44 10° E daylight
15 Dec - 10:53:44 10° WSW 10:58:14 69° SSE 11:02:39 10° ENE daylight
15 Dec - 12:35:17 10° W 12:39:46 82° N 12:44:13 10° E daylight
15 Dec - 14:16:54 10° WNW 14:21:18 64° SSW 14:25:39 10° ESE daylight
15 Dec - 15:59:00 10° W 16:02:16 20° SW 16:05:32 10° S daylight
16 Dec - 09:28:53 10° SW 09:33:03 37° SSE 09:37:12 10° E daylight
16 Dec - 11:09:50 10° WSW 11:14:21 87° SSE 11:18:49 10° E daylight
16 Dec - 12:51:29 10° W 12:55:58 87° NNE 13:00:24 10° E daylight
16 Dec - 14:33:06 10° W 14:37:19 43° SSW 14:41:30 10° SE daylight
16 Dec - 16:16:31 10° WSW 16:18:00 11° SW 16:19:30 10° SSW daylight
17 Dec - 08:05:11 10° S 08:08:09 17° SE 08:11:06 10° E visible
17 Dec - 09:44:36 10° SW 09:49:03 56° SSE 09:53:26 10° E daylight
17 Dec - 11:26:00 10° W 11:30:32 83° N 11:34:59 10° E daylight
17 Dec - 13:07:38 10° WNW 13:12:07 77° SSW 13:16:32 10° ESE daylight
17 Dec - 14:49:28 10° W 14:53:15 28° SW 14:56:59 10° SSE daylight
18 Dec - 08:20:03 10° SSW 08:23:58 28° SE 08:27:50 10° E daylight
18 Dec - 10:00:36 10° WSW 10:05:08 77° SSE 10:09:37 10° ENE daylight
18 Dec - 11:42:13 10° W 11:46:43 83° N 11:51:11 10° E daylight
18 Dec - 13:23:49 10° W 13:28:12 56° SSW 13:32:31 10° SE daylight
18 Dec - 15:06:14 10° W 15:09:03 17° SW 15:11:50 10° S daylight
